Location: Unspecified
(51.5147°N, 7.4673°E)
Time: 00:20:56
(UTC+01:00)

A-11 Canister half - Visible Passes

Search period start: 17 February 2026 00:00
Search period end: 27 February 2026 00:00
Orbit: 1525 x 1682 km, 47.3° (Epoch: 16 February)

Date Brightness Start Highest point End Pass type
(mag) Time Alt. Az. Time Alt. Az. Time Alt. Az.
17 Feb 9.2 18:28:28 10° WSW 18:37:35 61° SSE 18:46:25 11° E visible
17 Feb 9.0 20:32:51 10° W 20:42:02 68° S 20:44:42 49° SE visible
17 Feb 10.0 22:37:35 10° W 22:43:00 34° WSW 22:43:00 34° WSW visible
18 Feb 9.3 18:06:40 10° WSW 18:15:48 60° SSE 18:24:53 10° E visible
18 Feb 9.0 20:11:02 10° W 20:20:14 68° S 20:24:07 39° ESE visible
18 Feb 9.7 22:15:45 10° W 22:22:24 40° WSW 22:22:24 40° WSW visible
19 Feb 9.0 19:49:12 10° W 19:58:25 68° S 20:03:32 30° ESE visible
19 Feb 9.5 21:53:55 10° W 22:01:49 45° SW 22:01:49 45° SW visible
19 Feb 11.1 23:59:58 10° W 00:00:06 10° W 00:00:06 10° W visible
20 Feb 9.1 19:27:23 10° W 19:36:37 69° S 19:42:58 23° ESE visible
20 Feb 9.3 21:32:05 10° W 21:40:49 48° SSW 21:41:15 47° SSW visible
20 Feb 10.9 23:37:59 10° W 23:39:33 14° W 23:39:33 14° W visible
21 Feb 9.1 19:05:33 10° W 19:14:48 69° S 19:22:26 17° ESE visible
21 Feb 9.3 21:10:16 10° W 21:19:02 49° SSW 21:20:43 45° S visible
21 Feb 10.7 23:16:01 10° W 23:19:00 17° WSW 23:19:00 17° WSW visible
22 Feb 9.2 18:43:44 10° W 18:52:59 69° S 19:01:54 11° ESE visible
22 Feb 9.4 20:48:26 10° W 20:57:16 50° SSW 21:00:12 39° SSE visible
22 Feb 10.5 22:54:04 10° W 22:58:30 20° WSW 22:58:30 20° WSW visible
23 Feb 9.2 18:21:54 10° W 18:31:10 69° S 18:40:23 10° E visible
23 Feb 9.4 20:26:36 10° W 20:35:28 52° SSW 20:39:43 32° SSE visible
23 Feb 10.4 22:32:08 10° W 22:38:01 22° SW 22:38:01 22° SW visible
24 Feb 9.4 20:04:46 10° W 20:13:41 53° SSW 20:19:17 24° SE visible
24 Feb 10.2 22:10:12 10° W 22:17:05 24° SW 22:17:35 24° SW visible
25 Feb 9.4 19:42:56 10° W 19:51:54 54° SSW 19:58:53 18° SE visible
25 Feb 10.2 21:48:17 10° W 21:55:20 25° SW 21:57:11 23° SSW visible
26 Feb 9.4 19:21:06 10° W 19:30:06 55° SSW 19:38:32 12° SE visible
26 Feb 10.2 21:26:23 10° W 21:33:35 26° SW 21:36:51 21° SSW visible
